DAL69 KLAX-KSAN

Flight info

Callsign DAL69
Flight time 0h 27m
Altitude 13000
Route LAXX1 MZB
Aircraft A320/M-SDE3FGHIRWY/LB1

Departure

Time 2026-04-26 01:28
Airport Los Angeles International Airport (KLAX)

Arrival

Time 2026-04-26 01:55
Airport San Diego International Airport (KSAN)
Time Latitude Longitude Altitude Speed Heading
2026-04-26 01:03 33.94707 -118.40743 95 ft 0 kts 192°
2026-04-26 01:12 33.94712 -118.40742 93 ft 2 kts 192°
2026-04-26 01:12 33.94731 -118.40737 94 ft 3 kts 192°
2026-04-26 01:13 33.94750 -118.40732 92 ft 3 kts 203°
2026-04-26 01:13 33.94765 -118.40720 95 ft 3 kts 242°
2026-04-26 01:13 33.94770 -118.40702 93 ft 2 kts 263°
2026-04-26 01:13 33.94772 -118.40683 93 ft 1 kts 263°
2026-04-26 01:14 33.94772 -118.40681 93 ft 0 kts 263°
2026-04-26 01:17 33.94772 -118.40683 93 ft 3 kts 263°
2026-04-26 01:17 33.94761 -118.40784 93 ft 15 kts 262°
2026-04-26 01:17 33.94745 -118.40916 95 ft 17 kts 262°
2026-04-26 01:17 33.94733 -118.41026 93 ft 14 kts 262°
2026-04-26 01:18 33.94716 -118.41153 94 ft 16 kts 260°
2026-04-26 01:18 33.94690 -118.41294 94 ft 18 kts 262°
2026-04-26 01:18 33.94605 -118.41367 96 ft 18 kts 176°
2026-04-26 01:18 33.94469 -118.41350 94 ft 21 kts 173°
2026-04-26 01:19 33.94319 -118.41328 93 ft 23 kts 173°
2026-04-26 01:19 33.94156 -118.41305 94 ft 24 kts 173°
2026-04-26 01:19 33.94002 -118.41281 94 ft 22 kts 173°
2026-04-26 01:19 33.93850 -118.41259 93 ft 16 kts 172°
2026-04-26 01:20 33.93761 -118.41193 96 ft 19 kts 102°
2026-04-26 01:20 33.93778 -118.40996 93 ft 24 kts 82°
2026-04-26 01:20 33.93798 -118.40806 95 ft 22 kts 83°
2026-04-26 01:20 33.93816 -118.40629 94 ft 22 kts 83°
2026-04-26 01:21 33.93844 -118.40350 96 ft 39 kts 83°
2026-04-26 01:21 33.93876 -118.40033 96 ft 33 kts 83°
2026-04-26 01:21 33.93905 -118.39757 96 ft 34 kts 83°
2026-04-26 01:21 33.93933 -118.39473 95 ft 34 kts 83°
2026-04-26 01:22 33.93962 -118.39189 94 ft 28 kts 82°
2026-04-26 01:22 33.93985 -118.38963 94 ft 27 kts 83°
2026-04-26 01:22 33.94007 -118.38743 94 ft 26 kts 83°
2026-04-26 01:22 33.94028 -118.38542 96 ft 22 kts 82°
2026-04-26 01:23 33.94047 -118.38366 96 ft 20 kts 82°
2026-04-26 01:23 33.94064 -118.38208 95 ft 18 kts 83°
2026-04-26 01:23 33.94078 -118.38072 93 ft 12 kts 81°
2026-04-26 01:23 33.94077 -118.38026 93 ft 0 kts 122°
2026-04-26 01:26 33.94076 -118.38026 93 ft 1 kts 122°
2026-04-26 01:26 33.94033 -118.37996 93 ft 9 kts 169°
2026-04-26 01:27 33.93981 -118.38037 94 ft 11 kts 255°
2026-04-26 01:27 33.93978 -118.38078 94 ft 0 kts 265°
2026-04-26 01:27 33.93977 -118.38092 94 ft 11 kts 265°
2026-04-26 01:28 33.93942 -118.38444 101 ft 78 kts 263°
2026-04-26 01:28 33.93850 -118.39360 95 ft 139 kts 263°
2026-04-26 01:28 33.93728 -118.40642 338 ft 168 kts 263°
2026-04-26 01:28 33.93580 -118.42054 1127 ft 169 kts 261°
2026-04-26 01:29 33.93398 -118.43551 1639 ft 191 kts 258°
2026-04-26 01:29 33.92821 -118.45068 2091 ft 217 kts 234°
2026-04-26 01:29 33.91834 -118.46584 2621 ft 240 kts 233°
2026-04-26 01:29 33.90666 -118.48079 3450 ft 252 kts 217°
2026-04-26 01:30 33.89160 -118.49200 4448 ft 256 kts 212°
2026-04-26 01:30 33.87597 -118.50258 5444 ft 259 kts 211°
2026-04-26 01:30 33.86021 -118.51308 6402 ft 263 kts 211°
2026-04-26 01:30 33.84409 -118.52375 7348 ft 265 kts 211°
2026-04-26 01:31 33.82777 -118.53452 8313 ft 268 kts 211°
2026-04-26 01:31 33.81134 -118.54534 9293 ft 270 kts 211°
2026-04-26 01:31 33.79470 -118.55625 10195 ft 275 kts 211°
2026-04-26 01:31 33.77715 -118.56775 10546 ft 299 kts 211°
2026-04-26 01:32 33.75822 -118.58016 10823 ft 322 kts 211°
2026-04-26 01:32 33.73823 -118.59327 11314 ft 335 kts 211°
2026-04-26 01:32 33.71752 -118.60677 12073 ft 339 kts 211°
2026-04-26 01:32 33.69641 -118.61960 12734 ft 345 kts 205°
2026-04-26 01:33 33.67265 -118.62550 12955 ft 354 kts 185°
2026-04-26 01:33 33.64782 -118.62043 13014 ft 385 kts 163°
2026-04-26 01:33 33.62431 -118.60256 13013 ft 415 kts 140°
2026-04-26 01:33 33.60758 -118.57387 13015 ft 429 kts 117°
2026-04-26 01:34 33.59838 -118.53943 13014 ft 435 kts 107°
2026-04-26 01:34 33.59405 -118.51585 13016 ft 436 kts 103°
2026-04-26 01:34 33.58912 -118.47985 13017 ft 437 kts 100°
2026-04-26 01:34 33.58500 -118.44362 13017 ft 437 kts 99°
2026-04-26 01:35 33.58080 -118.40747 13017 ft 437 kts 101°
2026-04-26 01:35 33.57609 -118.37144 13018 ft 437 kts 102°
2026-04-26 01:35 33.57087 -118.33593 13018 ft 436 kts 103°
2026-04-26 01:35 33.56515 -118.30013 13018 ft 436 kts 104°
2026-04-26 01:36 33.55921 -118.26442 13007 ft 436 kts 104°
2026-04-26 01:36 33.55320 -118.22871 13004 ft 436 kts 104°
2026-04-26 01:36 33.54732 -118.19354 13007 ft 436 kts 104°
2026-04-26 01:37 33.53557 -118.12209 13011 ft 436 kts 104°
2026-04-26 01:37 33.52737 -118.08710 13012 ft 432 kts 114°
2026-04-26 01:37 33.51476 -118.05520 13018 ft 428 kts 124°
2026-04-26 01:37 33.49783 -118.02609 13021 ft 423 kts 133°
2026-04-26 01:38 33.47953 -117.99832 13023 ft 423 kts 133°
2026-04-26 01:38 33.46126 -117.97063 13023 ft 423 kts 133°
2026-04-26 01:38 33.44296 -117.94284 13023 ft 423 kts 133°
2026-04-26 01:38 33.42494 -117.91541 13025 ft 422 kts 133°
2026-04-26 01:39 33.40677 -117.88773 13006 ft 423 kts 132°
2026-04-26 01:39 33.38858 -117.86013 13014 ft 422 kts 133°
2026-04-26 01:39 33.37029 -117.83245 13027 ft 422 kts 133°
2026-04-26 01:39 33.35223 -117.80515 13029 ft 422 kts 133°
2026-04-26 01:40 33.33401 -117.77758 13032 ft 422 kts 133°
2026-04-26 01:40 33.31583 -117.75003 13031 ft 421 kts 133°
2026-04-26 01:40 33.29760 -117.72242 13031 ft 421 kts 133°
2026-04-26 01:40 33.27959 -117.69515 13035 ft 421 kts 133°
2026-04-26 01:41 33.26138 -117.66760 13032 ft 421 kts 133°
2026-04-26 01:41 33.24312 -117.64004 13027 ft 421 kts 133°
2026-04-26 01:41 33.22517 -117.61299 13031 ft 420 kts 133°
2026-04-26 01:41 33.20699 -117.58561 13041 ft 420 kts 133°
2026-04-26 01:42 33.18882 -117.55823 13041 ft 420 kts 133°
2026-04-26 01:42 33.16998 -117.53156 13042 ft 416 kts 138°
2026-04-26 01:42 33.14984 -117.50671 13041 ft 415 kts 139°
2026-04-26 01:42 33.12981 -117.48251 13045 ft 415 kts 139°
2026-04-26 01:43 33.10958 -117.45830 12905 ft 405 kts 140°
2026-04-26 01:43 33.08967 -117.43452 12194 ft 401 kts 140°
2026-04-26 01:43 33.07001 -117.41113 11499 ft 396 kts 140°
2026-04-26 01:43 33.05078 -117.38827 10988 ft 388 kts 139°
2026-04-26 01:44 33.03216 -117.36603 10855 ft 368 kts 139°
2026-04-26 01:44 33.01450 -117.34482 10729 ft 350 kts 139°
2026-04-26 01:44 32.99788 -117.32484 10611 ft 331 kts 139°
2026-04-26 01:44 32.98216 -117.30597 10442 ft 310 kts 140°
2026-04-26 01:45 32.96724 -117.28815 10232 ft 302 kts 140°
2026-04-26 01:45 32.95241 -117.27053 9973 ft 297 kts 140°
2026-04-26 01:45 32.93795 -117.25341 9846 ft 296 kts 140°
2026-04-26 01:45 32.92334 -117.23607 9715 ft 296 kts 140°
2026-04-26 01:46 32.90872 -117.21870 9402 ft 298 kts 139°
2026-04-26 01:46 32.89397 -117.20115 8961 ft 297 kts 139°
2026-04-26 01:46 32.87924 -117.18365 8426 ft 300 kts 138°
2026-04-26 01:46 32.86481 -117.16647 8144 ft 294 kts 138°
2026-04-26 01:47 32.85038 -117.14929 7805 ft 292 kts 139°
2026-04-26 01:47 32.83605 -117.13225 7438 ft 290 kts 138°
2026-04-26 01:47 32.82163 -117.11515 6785 ft 297 kts 138°
2026-04-26 01:47 32.80716 -117.09798 6305 ft 287 kts 138°
2026-04-26 01:48 32.79373 -117.08196 6135 ft 265 kts 137°
2026-04-26 01:48 32.78193 -117.06623 6023 ft 245 kts 125°
2026-04-26 01:48 32.77492 -117.04811 5845 ft 240 kts 107°
2026-04-26 01:48 32.77040 -117.02925 5652 ft 235 kts 108°
2026-04-26 01:49 32.76589 -117.01070 5458 ft 230 kts 108°
2026-04-26 01:49 32.76154 -116.99288 5280 ft 225 kts 108°
2026-04-26 01:49 32.75615 -116.97568 5059 ft 219 kts 124°
2026-04-26 01:49 32.74609 -116.96261 4806 ft 212 kts 149°
2026-04-26 01:50 32.73297 -116.95548 4550 ft 204 kts 172°
2026-04-26 01:50 32.71930 -116.95482 4309 ft 197 kts 193°
2026-04-26 01:50 32.70659 -116.96003 4060 ft 190 kts 213°
2026-04-26 01:50 32.69660 -116.96998 3846 ft 186 kts 232°
2026-04-26 01:51 32.69031 -116.98316 3617 ft 184 kts 251°
2026-04-26 01:51 32.68823 -116.99792 3378 ft 186 kts 270°
2026-04-26 01:51 32.69059 -117.01329 3124 ft 191 kts 285°
2026-04-26 01:51 32.69435 -117.02844 2875 ft 192 kts 284°
2026-04-26 01:52 32.69804 -117.04356 2648 ft 185 kts 283°
2026-04-26 01:52 32.70152 -117.05780 2396 ft 174 kts 284°
2026-04-26 01:52 32.70477 -117.07104 2171 ft 160 kts 284°
2026-04-26 01:52 32.70770 -117.08300 1975 ft 143 kts 283°
2026-04-26 01:53 32.71041 -117.09409 1761 ft 136 kts 283°
2026-04-26 01:53 32.71298 -117.10470 1546 ft 132 kts 282°
2026-04-26 01:53 32.71548 -117.11505 1336 ft 131 kts 283°
2026-04-26 01:53 32.71798 -117.12541 1121 ft 130 kts 283°
2026-04-26 01:54 32.72049 -117.13570 927 ft 130 kts 284°
2026-04-26 01:54 32.72300 -117.14592 729 ft 128 kts 283°
2026-04-26 01:54 32.72542 -117.15586 543 ft 125 kts 283°
2026-04-26 01:54 32.72782 -117.16563 353 ft 121 kts 283°
2026-04-26 01:55 32.73010 -117.17531 159 ft 121 kts 283°
2026-04-26 01:55 32.73235 -117.18465 27 ft 111 kts 283°
2026-04-26 01:55 32.73406 -117.19183 24 ft 67 kts 286°
2026-04-26 01:55 32.73509 -117.19618 26 ft 41 kts 285°
2026-04-26 01:56 32.73517 -117.19808 27 ft 10 kts 252°
2026-04-26 01:56 32.73496 -117.19888 23 ft 0 kts 252°
2026-04-26 01:57 32.73491 -117.19914 23 ft 13 kts 261°
2026-04-26 01:57 32.73518 -117.20064 23 ft 20 kts 286°
2026-04-26 01:57 32.73558 -117.20233 23 ft 22 kts 285°
2026-04-26 01:57 32.73586 -117.20392 23 ft 15 kts 261°
2026-04-26 01:58 32.73519 -117.20498 23 ft 18 kts 220°
2026-04-26 01:58 32.73436 -117.20557 24 ft 14 kts 188°
2026-04-26 01:58 32.73354 -117.20558 23 ft 9 kts 155°
2026-04-26 01:58 32.73343 -117.20495 23 ft 8 kts 85°
2026-04-26 01:59 32.73344 -117.20472 23 ft 2 kts 85°
2026-04-26 01:59 32.73345 -117.20464 23 ft 0 kts 85°